• In United Kingdom
  • List of Countries
  • For 7 days
  • Water Temperature
  • Satellite Maps
  • Weather Map
  • Weather Widgets
  • user-avatar
    Login

    Hourly Weather Nakhchivan

    Today, 26 May, Saturday

    Time Temperature Precipitation Wind Pressure Humidity
    00:00 +22°C° 0.2 mm 1 mps 685 mmHg 50%
    01:00 +21°C° 0 mm 1 mps 685 mmHg 50%
    02:00 +21°C° 0 mm 1 mps 685 mmHg 51%
    03:00 +21°C° 0 mm 1 mps 685 mmHg 52%
    04:00 +21°C° 0 mm 1 mps 685 mmHg 50%
    05:00 +22°C° 0 mm 1 mps 685 mmHg 48%
    06:00 +22°C° 0 mm 1 mps 685 mmHg 46%
    07:00 +24°C° 0 mm 1 mps 686 mmHg 43%
    08:00 +25°C° 0 mm 1 mps 686 mmHg 39%
    09:00 +26°C° 0 mm 1 mps 686 mmHg 36%
    10:00 +27°C° 0 mm 2 mps 686 mmHg 33%
    11:00 +29°C° 0 mm 2 mps 686 mmHg 30%
    12:00 +30°C° 0 mm 2 mps 686 mmHg 27%
    13:00 +30°C° 0 mm 2 mps 686 mmHg 26%
    14:00 +31°C° 0 mm 3 mps 686 mmHg 25%
    15:00 +31°C° 0 mm 3 mps 686 mmHg 23%
    16:00 +31°C° 0.2 mm 3 mps 686 mmHg 25%
    17:00 +30°C° 0.2 mm 3 mps 686 mmHg 27%
    18:00 +30°C° 0.2 mm 3 mps 686 mmHg 28%
    19:00 +28°C° 0.2 mm 2 mps 686 mmHg 33%
    20:00 +26°C° 0.2 mm 2 mps 686 mmHg 38%
    21:00 +25°C° 0.2 mm 1 mps 686 mmHg 42%
    22:00 +24°C° 0 mm 1 mps 687 mmHg 43%
    23:00 +24°C° 0 mm 1 mps 687 mmHg 44%

    Tomorrow, 27 May, Sunday

    Time Temperature Precipitation Wind Pressure Humidity
    00:00 +23°C° 0 mm 1 mps 687 mmHg 45%
    01:00 +23°C° 0.1 mm 1 mps 687 mmHg 46%
    02:00 +22°C° 0.1 mm 1 mps 687 mmHg 47%
    03:00 +22°C° 0.1 mm 1 mps 687 mmHg 48%
    04:00 +22°C° 0 mm 1 mps 688 mmHg 47%
    05:00 +23°C° 0 mm 1 mps 688 mmHg 45%
    06:00 +23°C° 0 mm 1 mps 689 mmHg 44%
    07:00 +25°C° 0 mm 1 mps 689 mmHg 40%
    08:00 +26°C° 0 mm 1 mps 689 mmHg 36%
    09:00 +27°C° 0 mm 1 mps 690 mmHg 32%
    10:00 +28°C° 0 mm 1 mps 690 mmHg 30%
    11:00 +29°C° 0 mm 2 mps 690 mmHg 28%
    12:00 +30°C° 0 mm 2 mps 690 mmHg 26%
    13:00 +31°C° 0 mm 3 mps 690 mmHg 25%
    14:00 +31°C° 0 mm 3 mps 690 mmHg 24%
    15:00 +33°C° 0 mm 3 mps 690 mmHg 24%
    16:00 +32°C° 0 mm 4 mps 690 mmHg 27%
    17:00 +30°C° 0 mm 4 mps 690 mmHg 30%
    18:00 +29°C° 0 mm 4 mps 690 mmHg 33%
    19:00 +28°C° 0 mm 4 mps 691 mmHg 39%
    20:00 +26°C° 0 mm 3 mps 691 mmHg 44%
    21:00 +24°C° 0 mm 3 mps 691 mmHg 50%
    22:00 +24°C° 0 mm 2 mps 691 mmHg 52%
    23:00 +23°C° 0 mm 2 mps 691 mmHg 55%

    Day after tomorrow, 28 May, Monday

    Time Temperature Precipitation Wind Pressure Humidity
    00:00 +21°C° 0 mm 2 mps 691 mmHg 58%
    01:00 +21°C° 0 mm 2 mps 691 mmHg 59%
    02:00 +20°C° 0 mm 2 mps 691 mmHg 60%
    03:00 +21°C° 0 mm 1 mps 691 mmHg 61%
    04:00 +21°C° 0 mm 1 mps 691 mmHg 59%
    05:00 +22°C° 0 mm 1 mps 691 mmHg 57%
    06:00 +22°C° 0 mm 1 mps 691 mmHg 55%
    07:00 +23°C° 0 mm 1 mps 691 mmHg 50%
    08:00 +25°C° 0 mm 1 mps 691 mmHg 44%
    09:00 +26°C° 0 mm 1 mps 691 mmHg 39%
    10:00 +28°C° 0 mm 1 mps 690 mmHg 36%
    11:00 +29°C° 0 mm 1 mps 690 mmHg 32%
    12:00 +30°C° 0 mm 2 mps 690 mmHg 29%
    13:00 +31°C° 0 mm 2 mps 689 mmHg 27%
    14:00 +31°C° 0 mm 2 mps 689 mmHg 26%
    15:00 +32°C° 0 mm 2 mps 688 mmHg 25%
    16:00 +31°C° 0.3 mm 2 mps 688 mmHg 27%
    17:00 +31°C° 0.3 mm 2 mps 688 mmHg 28%
    18:00 +30°C° 0.3 mm 2 mps 688 mmHg 30%
    19:00 +29°C° 0.1 mm 2 mps 688 mmHg 35%
    20:00 +27°C° 0.1 mm 2 mps 689 mmHg 40%
    21:00 +26°C° 0.1 mm 2 mps 689 mmHg 45%
    22:00 +25°C° 0 mm 2 mps 689 mmHg 47%
    23:00 +25°C° 0 mm 2 mps 688 mmHg 48%

    29 May, Tuesday

    Time Temperature Precipitation Wind Pressure Humidity
    00:00 +24°C° 0 mm 1 mps 688 mmHg 50%
    01:00 +24°C° 0 mm 1 mps 688 mmHg 52%
    02:00 +23°C° 0 mm 1 mps 688 mmHg 53%
    03:00 +23°C° 0 mm 1 mps 688 mmHg 54%
    04:00 +23°C° 0 mm 1 mps 688 mmHg 53%
    05:00 +23°C° 0 mm 1 mps 688 mmHg 51%
    06:00 +24°C° 0 mm 1 mps 688 mmHg 50%
    07:00 +25°C° 0 mm 2 mps 688 mmHg 46%
    08:00 +26°C° 0 mm 2 mps 688 mmHg 42%
    09:00 +27°C° 0 mm 2 mps 688 mmHg 37%
    10:00 +28°C° 0 mm 2 mps 688 mmHg 36%
    11:00 +29°C° 0 mm 2 mps 688 mmHg 34%
    12:00 +30°C° 0 mm 3 mps 688 mmHg 32%
    13:00 +30°C° 0.1 mm 3 mps 688 mmHg 33%
    14:00 +30°C° 0.1 mm 3 mps 687 mmHg 34%
    15:00 +30°C° 0.1 mm 3 mps 687 mmHg 35%
    16:00 +29°C° 0.8 mm 3 mps 687 mmHg 39%
    17:00 +28°C° 0.8 mm 3 mps 687 mmHg 43%
    18:00 +27°C° 0.8 mm 4 mps 687 mmHg 48%
    19:00 +25°C° 1.3 mm 3 mps 687 mmHg 54%
    20:00 +24°C° 1.3 mm 3 mps 688 mmHg 60%
    21:00 +23°C° 1.3 mm 2 mps 688 mmHg 67%
    22:00 +21°C° 0.1 mm 2 mps 688 mmHg 67%
    23:00 +21°C° 0.1 mm 2 mps 688 mmHg 67%

    30 May, Wednesday

    Time Temperature Precipitation Wind Pressure Humidity
    00:00 +22°C° 0.1 mm 1 mps 688 mmHg 67%
    01:00 +21°C° 0 mm 1 mps 688 mmHg 68%
    02:00 +21°C° 0 mm 1 mps 688 mmHg 68%
    03:00 +20°C° 0 mm 2 mps 688 mmHg 69%
    04:00 +20°C° 0 mm 2 mps 688 mmHg 67%
    05:00 +20°C° 0 mm 2 mps 688 mmHg 65%
    06:00 +20°C° 0 mm 2 mps 688 mmHg 63%
    07:00 +21°C° 0 mm 2 mps 688 mmHg 57%
    08:00 +24°C° 0 mm 2 mps 688 mmHg 51%
    09:00 +25°C° 0 mm 3 mps 688 mmHg 45%
    10:00 +27°C° 0 mm 3 mps 688 mmHg 42%
    11:00 +28°C° 0 mm 3 mps 688 mmHg 39%
    12:00 +29°C° 0 mm 3 mps 688 mmHg 35%
    13:00 +30°C° 0 mm 4 mps 688 mmHg 34%
    14:00 +32°C° 0 mm 4 mps 688 mmHg 33%
    15:00 +32°C° 0 mm 4 mps 688 mmHg 32%
    16:00 +32°C° 0.2 mm 4 mps 687 mmHg 34%
    17:00 +30°C° 0.2 mm 4 mps 687 mmHg 36%
    18:00 +29°C° 0.2 mm 4 mps 687 mmHg 39%
    19:00 +28°C° 0.1 mm 3 mps 687 mmHg 44%
    20:00 +26°C° 0.1 mm 3 mps 687 mmHg 49%
    21:00 +25°C° 0.1 mm 2 mps 687 mmHg 54%
    22:00 +24°C° 0.1 mm 2 mps 687 mmHg 55%
    23:00 +24°C° 0.1 mm 2 mps 687 mmHg 56%

    31 May, Thursday

    Time Temperature Precipitation Wind Pressure Humidity
    00:00 +24°C° 0.1 mm 3 mps 687 mmHg 56%
    01:00 +23°C° 0.2 mm 2 mps 687 mmHg 58%
    02:00 +23°C° 0.2 mm 2 mps 686 mmHg 60%
    03:00 +23°C° 0.2 mm 2 mps 686 mmHg 62%
    04:00 +23°C° 0.1 mm 1 mps 686 mmHg 61%
    05:00 +23°C° 0.1 mm 1 mps 686 mmHg 59%
    06:00 +24°C° 0.1 mm 1 mps 686 mmHg 58%
    07:00 +25°C° 0.1 mm 2 mps 685 mmHg 52%
    08:00 +27°C° 0.1 mm 2 mps 685 mmHg 45%
    09:00 +29°C° 0.1 mm 2 mps 685 mmHg 38%
    10:00 +30°C° 0 mm 4 mps 685 mmHg 34%
    11:00 +33°C° 0 mm 5 mps 684 mmHg 30%
    12:00 +34°C° 0 mm 6 mps 684 mmHg 27%
    13:00 +35°C° 0 mm 6 mps 684 mmHg 24%
    14:00 +35°C° 0 mm 6 mps 683 mmHg 22%
    15:00 +36°C° 0 mm 7 mps 683 mmHg 20%
    16:00 +35°C° 0.1 mm 6 mps 683 mmHg 21%
    17:00 +34°C° 0.1 mm 6 mps 683 mmHg 23%
    18:00 +34°C° 0.1 mm 6 mps 683 mmHg 25%
    19:00 +32°C° 0.3 mm 4 mps 683 mmHg 31%
    20:00 +29°C° 0.3 mm 3 mps 684 mmHg 36%
    21:00 +27°C° 0.3 mm 2 mps 684 mmHg 42%
    22:00 +26°C° 0 mm 2 mps 684 mmHg 44%
    23:00 +25°C° 0 mm 2 mps 684 mmHg 46%
    Show more